Weather History for Seward, AK

Change the Weather History Date:

Thursday, November 29, 2012

  Actual Average Record
Temperature  
Mean Temperature 22 °F -  
Max Temperature 24 °F 34 °F 48 °F (2002)
Min Temperature 19 °F 24 °F 8 °F (2003)
Degree Days  
Heating Degree Days 44    
Moisture  
Dew Point 3 °F    
Average Humidity 44    
Maximum Humidity 53    
Minimum Humidity 34    
Precipitation  
Precipitation 0.00 in - - ()
Sea Level Pressure  
Sea Level Pressure 29.48 in    
Wind  
Wind Speed 19 mph (NNE)    
Max Wind Speed 26 mph    
Max Gust Speed 41 mph    
Visibility 10 miles    
Events      
Averages and records for this station are not official NWS values.
T = Trace of Precipitation, MM = Missing Value Source: NWS Daily Summary

Daily Weather History Graph

Daily Weather History Graph

Search for Another Location

Airport:

Trip Planner

Search our weather history database for the weather conditions in past years. The results will help you decide how hot, cold, wet, or windy it might be!

Date:

Astronomy

Nov. 29, 2012 Rise Set
Actual Time 9:31 AM AKST 4:00 PM AKST
Civil Twilight 8:36 AM AKST 4:55 PM AKST
Nautical Twilight 7:41 AM AKST 5:50 PM AKST
Astronomical Twilight 6:51 AM AKST 6:40 PM AKST
Moon 5:10 PM AKST (11/29) 10:27 AM AKST (11/29)
Length of Visible Light 8h 18m
Length of Day
6h 29m
Full, 99% of the Moon is Illuminated
Nov 29
Full
Dec 6
Last Quarter
Dec 12
New
Dec 19
First Quarter
Dec 28
Full

Hourly Weather History & Observations

Time (AKST) Temp. Windchill Dew Point Humidity Pressure Visibility Wind Dir Wind Speed Gust Speed Precip Events Conditions
12:53 AM 23.0 °F 8.3 °F 5.0 °F 46% 29.59 in 10.0 mi NNE 19.6 mph 29.9 mph N/A   Clear
1:53 AM 21.9 °F 7.3 °F 6.1 °F 51% 29.56 in 10.0 mi NNE 18.4 mph 29.9 mph N/A   Clear
2:53 AM 21.0 °F 6.2 °F 6.1 °F 53% 29.55 in 10.0 mi NNE 18.4 mph 28.8 mph N/A   Clear
3:53 AM 21.9 °F 6.2 °F 3.9 °F 46% 29.53 in 10.0 mi NNE 21.9 mph 31.1 mph N/A   Clear
4:53 AM 21.9 °F 6.2 °F 3.9 °F 46% 29.52 in 10.0 mi NNE 21.9 mph 29.9 mph N/A   Clear
5:53 AM 21.9 °F 6.9 °F 3.0 °F 44% 29.51 in 10.0 mi NNE 19.6 mph 32.2 mph N/A   Clear
6:53 AM 19.9 °F 4.8 °F 5.0 °F 52% 29.49 in 10.0 mi NNE 18.4 mph 25.3 mph N/A   Clear
7:53 AM 23.0 °F 6.3 °F 1.0 °F 39% 29.47 in 10.0 mi NNE 26.5 mph 41.4 mph N/A   Clear
8:53 AM 21.9 °F 7.3 °F -0.0 °F 38% 29.47 in 10.0 mi NNE 18.4 mph 40.3 mph N/A   Clear
9:53 AM 21.0 °F 5.4 °F 1.9 °F 44% 29.47 in 10.0 mi NNE 20.7 mph 35.7 mph N/A   Clear
10:53 AM 21.9 °F 6.2 °F 1.0 °F 40% 29.45 in 10.0 mi NNE 21.9 mph 40.3 mph N/A   Clear
11:53 AM 21.9 °F 7.8 °F 3.0 °F 44% 29.45 in 10.0 mi NNE 17.3 mph 29.9 mph N/A   Clear
12:53 PM 23.0 °F 8.7 °F 1.9 °F 40% 29.43 in 10.0 mi NNE 18.4 mph 28.8 mph N/A   Clear
1:53 PM 23.0 °F 8.0 °F 3.9 °F 44% 29.42 in 10.0 mi NNE 20.7 mph 28.8 mph N/A   Clear
2:53 PM 24.1 °F 9.4 °F -0.9 °F 34% 29.41 in 10.0 mi NNE 20.7 mph 34.5 mph N/A   Clear
3:53 PM 21.9 °F 7.3 °F 3.0 °F 44% 29.41 in 10.0 mi NNE 18.4 mph 34.5 mph N/A   Clear
4:53 PM 21.9 °F 6.9 °F 1.0 °F 40% 29.42 in 10.0 mi NNE 19.6 mph 29.9 mph N/A   Clear
5:53 PM 23.0 °F 7.6 °F 1.0 °F 39% 29.43 in 10.0 mi NNE 21.9 mph 33.4 mph N/A   Clear
6:53 PM 19.9 °F 6.2 °F 3.0 °F 48% 29.45 in 10.0 mi NNE 15.0 mph 25.3 mph N/A   Clear
7:53 PM 21.0 °F 6.2 °F 1.9 °F 44% 29.44 in 10.0 mi NNE 18.4 mph 31.1 mph N/A   Clear
8:53 PM 21.0 °F 7.6 °F 1.9 °F 44% 29.46 in 10.0 mi North 15.0 mph 24.2 mph N/A   Clear
9:53 PM 19.9 °F 5.2 °F 1.9 °F 46% 29.48 in 10.0 mi NNE 17.3 mph 25.3 mph N/A   Clear
10:53 PM 19.9 °F 5.7 °F 1.9 °F 46% 29.49 in 10.0 mi NNE 16.1 mph 25.3 mph N/A   Clear
11:53 PM 19.9 °F 5.7 °F 1.9 °F 46% 29.51 in 10.0 mi NNE 16.1 mph 26.5 mph N/A   Clear